"Time","Temp","Dewpoint","Humidity","Pressure","Direction","Speed","Gust","Precip","PrecipRate"
"00:04:56","39.2","34.2","82","30.02","203","0.2","1.2","0.00","0.00"
"00:09:56","39.1","34.1","82","30.02","203","0.1","2.4","0.00","0.00"
"00:14:56","39","34","82","30.02","203","0.1","2.3","0.00","0.00"
"00:19:59","38.7","34","82.8","30.02","203","0","0","0.00","0.00"
"00:24:58","38.5","33.9","83.3","30.02","203","0.2","2.4","0.00","0.00"
"00:29:56","38.2","33.8","84","30.02","203","0.6","2.4","0.00","0.00"
"00:34:58","37.9","33.5","84","30.02","203","0.1","2.4","0.00","0.00"
"00:39:58","37.8","33.6","84.9","30.02","203","0","0","0.00","0.00"
"00:44:57","37.7","33.6","85","30.02","203","0","0","0.00","0.00"
"00:49:56","37.6","33.5","85","30.02","203","0.1","2.4","0.00","0.00"
"00:54:58","37.8","33.7","85","30.02","203","0.2","2.3","0.00","0.00"
"00:59:56","37.9","33.8","84.9","30.02","203","0.1","3.6","0.00","0.00"
"01:04:59","38.1","33.7","84","30.02","203","0.5","3.5","0.00","0.00"
"01:09:57","38.1","33.7","84","30.02","203","0","0","0.00","0.00"
"01:14:58","38","33.6","84","30.02","203","0","0","0.00","0.00"
"01:19:56","37.8","33.4","84","30.02","203","0","0","0.00","0.00"
"01:24:59","37.4","33.2","84.7","30.02","203","0","0","0.00","0.00"
"01:29:57","37.1","33.1","85.3","30.02","203","0","0","0.00","0.00"
"01:34:56","36.7","32.9","86","30.02","203","0","1.2","0.00","0.00"
"01:39:57","36.4","32.9","86.9","30.02","203","0.3","1.2","0.00","0.00"
"01:44:56","36.2","32.7","87","30.02","203","0","1.2","0.00","0.00"
"01:49:58","36.1","32.6","87","30.02","203","0","0","0.00","0.00"
"01:54:57","36","32.7","87.7","30.02","203","0.2","1.2","0.00","0.00"
"01:59:56","35.9","32.7","88","30.02","203","0","1.2","0.00","0.00"
"02:04:57","35.9","33","88.9","30.02","203","0","1.2","0.00","0.00"
"02:09:59","35.8","32.9","89","30.02","203","0.1","1.2","0.00","0.00"
"02:14:59","35.7","32.8","89","30.02","203","0","0","0.00","0.00"
"02:19:58","35.6","32.7","89","30.02","203","0","0","0.00","0.00"
"02:24:56","35.4","32.5","89","30.02","203","0","0","0.00","0.00"
"02:29:59","35.3","32.4","89","30.02","203","0","1.2","0.00","0.00"
"02:34:57","35.2","32.3","89","30.02","203","0.7","2.4","0.00","0.00"
"02:39:57","35.1","32.4","89.6","30.02","203","0","1.2","0.00","0.00"
"02:44:59","35","32.4","90","30.02","203","0.6","2.4","0.00","0.00"
"02:49:57","34.8","32","89.2","30.02","203","0.3","2.4","0.00","0.00"
"02:54:59","34.7","32.1","90","30.02","203","0","0","0.00","0.00"
"02:59:57","34.5","31.9","90","30.02","203","0","0","0.00","0.00"
"03:04:56","34.4","31.8","90","30.02","203","0.1","1.2","0.00","0.00"
"03:09:58","34.2","31.6","90","30.02","203","0.6","2.4","0.00","0.00"
"03:14:59","34.1","31.5","90","30.02","203","1.1","2.4","0.00","0.00"
"03:19:57","34","31.6","90.9","30.01","203","0.6","2.4","0.00","0.00"
"03:24:59","33.8","31.5","91","30.01","203","0.2","1.2","0.00","0.00"
"03:29:57","33.7","31.4","91","30.02","203","0.3","2.4","0.00","0.00"
"03:34:56","33.6","31.3","91","30.02","203","0.2","2.3","0.00","0.00"
"03:39:52","33.4","31.1","91","30.02","203","0","0","0.00","0.00"
"03:44:58","33.3","31","91","30.02","203","0.1","1.2","0.00","0.00"
"03:49:56","33.3","31.2","91.9","30.02","203","0.1","1.2","0.00","0.00"
"03:54:59","33.3","31.2","92","30.02","203","0","0","0.00","0.00"
"03:59:58","33.3","31.2","92","30.02","203","0.6","2.4","0.00","0.00"
"04:04:59","33.5","31.5","92.5","30.02","203","0.6","3.6","0.00","0.00"
"04:09:57","33.6","31.5","92","30.02","203","0.1","1.2","0.00","0.00"
"04:14:57","33.7","31.9","93","30.02","203","0","1.2","0.00","0.00"
"04:19:59","33.9","32.1","93","30.02","203","0.3","1.2","0.00","0.00"
"04:24:57","34.1","32.2","92.8","30.02","203","0.4","2.4","0.00","0.00"
"04:29:59","34.1","32","92.1","30.02","203","0.1","1.2","0.00","0.00"
"04:34:57","34.1","32","92","30.02","203","0.4","2.4","0.00","0.00"
"04:39:57","34","31.9","92","30.02","203","0.3","2.4","0.00","0.00"
"04:44:58","34","31.9","92","30.02","203","0.4","2.4","0.00","0.00"
"04:49:56","34","31.9","92","30.02","203","0.6","2.4","0.00","0.00"
"04:54:58","34.1","32","92","30.02","203","0.5","2.4","0.00","0.00"
"04:59:56","34.1","32","92","30.02","203","0.4","2.4","0.00","0.00"
"05:04:57","34.1","32","92","30.02","203","0.3","2.4","0.00","0.00"
"05:09:59","34","31.9","92","30.02","203","0.4","2.4","0.00","0.00"
"05:14:59","34","31.9","91.8","30.02","203","0.4","2.4","0.00","0.00"
"05:19:57","33.9","31.7","91.7","30.02","203","0.1","1.2","0.00","0.00"
"05:24:59","33.9","31.8","91.9","30.02","203","0","0","0.00","0.00"
"05:29:58","33.9","31.6","91","30.02","203","0.6","2.4","0.00","0.00"
"05:34:56","33.8","31.5","91.1","30.02","202","0.2","3.6","0.00","0.00"
"05:39:56","33.7","31.6","92","30.02","202","0.6","3.5","0.00","0.00"
"05:44:58","33.6","31.3","91.3","30.02","202","0.1","1.2","0.00","0.00"
"05:49:56","33.5","31.3","91.7","30.02","202","0","0","0.00","0.00"
"05:54:58","33.4","31.1","91","30.02","202","0","0","0.00","0.00"
"05:59:56","33.2","30.9","91","30.03","202","0","0","0.00","0.00"
"06:04:58","33.1","30.8","91.1","30.03","202","0","1.2","0.00","0.00"
"06:09:57","33","30.8","91.5","30.03","202","0","0","0.00","0.00"
"06:14:57","32.9","30.8","92","30.03","202","0","0","0.00","0.00"
"06:19:59","32.8","30.7","92","30.03","202","0","0","0.00","0.00"
"06:24:57","32.7","30.6","92","30.03","202","0","1.2","0.00","0.00"
"06:29:59","32.7","30.6","92","30.04","202","0","1.2","0.00","0.00"
"06:34:57","32.6","30.5","92","30.04","202","0","0","0.00","0.00"
"06:39:57","32.5","30.4","92","30.04","202","0.2","1.2","0.00","0.00"
"06:44:59","32.4","30.4","92.4","30.04","202","0.2","2.4","0.00","0.00"
"06:49:57","32.5","30.6","92.6","30.04","202","0.2","2.4","0.00","0.00"
"06:54:59","32.5","30.7","92.9","30.04","202","0.2","2.3","0.00","0.00"
"06:59:57","32.5","30.7","93","30.04","202","0","1.2","0.00","0.00"
"07:04:59","32.5","30.6","92.7","30.04","202","0.6","3.6","0.00","0.00"
"07:09:57","32.4","30.6","93","30.04","202","0.2","2.3","0.00","0.00"
"07:14:56","32.4","30.6","93","30.05","202","0.6","2.4","0.00","0.00"
"07:19:58","32.4","30.6","93","30.05","202","0.7","2.4","0.00","0.00"
"07:24:56","32.4","30.6","93","30.05","202","0.1","1.2","0.00","0.00"
"07:29:58","32.5","30.7","93","30.05","202","0.2","1.2","0.00","0.00"
"07:34:56","32.4","30.6","93","30.05","202","0.3","1.2","0.00","0.00"
"07:39:57","32.5","30.7","93","30.05","202","0.6","2.4","0.00","0.00"
"07:44:59","32.5","30.7","93","30.05","202","0.7","3.6","0.00","0.00"
"07:49:57","32.6","30.8","93","30.05","202","0","1.2","0.00","0.00"
"07:54:56","32.7","30.9","93","30.05","202","0","0","0.00","0.00"
"07:59:58","32.7","30.9","93","30.05","202","0","0","0.00","0.00"
"08:04:56","32.8","31","93","30.05","202","0","0","0.00","0.00"
"08:09:58","33","31.2","93.2","30.05","202","0","0","0.00","0.00"
"08:14:58","33.1","31.3","93","30.06","202","1.2","3.6","0.00","0.00"
"08:19:59","33.3","31.5","93","30.06","202","1.8","3.6","0.00","0.00"
"08:24:57","33.6","31.8","93","30.06","202","1.7","3.6","0.00","0.00"
"08:29:59","33.9","32.1","93","30.06","202","1.7","3.6","0.00","0.00"
"08:34:58","34.3","32.5","93","30.06","202","2","6","0.00","0.00"
"08:39:58","34.8","32.9","92.6","30.06","202","2.4","6","0.00","0.00"
"08:44:57","35.4","33.3","92","30.07","196","3.2","6","0.00","0.00"
"08:49:58","36.3","34","91.2","30.07","188","2.7","7.2","0.00","0.00"
"08:54:56","37.1","34.6","90.6","30.07","188","2.1","4.8","0.00","0.00"
"08:59:58","38.2","35.2","89","30.07","187","2.7","6","0.00","0.00"
"09:04:56","39.2","35.6","86.7","30.07","156","2.8","7.2","0.00","0.00"
"09:09:58","40.2","35.9","84.4","30.07","180","2.7","6.9","0.00","0.00"
"09:14:58","40.8","35.9","82.5","30.07","200","3.5","7.2","0.00","0.00"
"09:19:56","41.5","36.3","81.4","30.07","174","3.2","7.2","0.00","0.00"
"09:24:58","42.5","36.7","79.9","30.07","161","2.8","6","0.00","0.00"
"09:29:56","43.3","37.2","78.8","30.07","178","3.1","7.2","0.00","0.00"
"09:34:58","44.1","37.5","77.5","30.07","177","2.7","6","0.00","0.00"
"09:39:58","45","37.6","75.4","30.07","163","3.6","7.2","0.00","0.00"
"09:44:57","45.6","37.8","73.9","30.07","183","3.1","6","0.00","0.00"
"09:49:59","46.3","37.9","72.6","30.07","168","3.4","7.2","0.00","0.00"
"09:54:57","47","38.3","71.7","30.07","178","3.9","7.2","0.00","0.00"
"09:59:57","47.8","38.2","69.2","30.07","168","4","7.2","0.00","0.00"
"10:04:58","48.5","39.1","69.8","30.07","169","3","8.4","0.00","0.00"
"10:09:56","49.1","38.8","67.5","30.07","163","3.7","8.4","0.00","0.00"
"10:14:57","49.9","38.7","65.2","30.07","172","4.5","10.8","0.00","0.00"
"10:19:58","50.4","38.7","64","30.06","173","3.7","10.4","0.00","0.00"
"10:24:57","50.9","38.8","63.2","30.06","171","4","8.4","0.00","0.00"
"10:29:59","51.3","38.1","60.4","30.06","174","5.2","10.8","0.00","0.00"
"10:34:58","51.6","37.5","58.5","30.06","188","5.2","10.8","0.00","0.00"
"10:39:58","52","37.9","58.5","30.06","186","4.6","12","0.00","0.00"
"10:44:56","52.3","37.2","56.4","30.06","198","6.3","12","0.00","0.00"
"10:49:58","52.7","37.7","56.6","30.05","191","3.8","8.4","0.00","0.00"
"10:54:56","53.4","37.6","54.9","30.05","183","4.2","8.4","0.00","0.00"
"10:59:59","53.9","37","52.8","30.05","198","5.8","13.2","0.00","0.00"
"11:04:56","54.1","36.9","52","30.05","214","4.8","13.2","0.00","0.00"
"11:09:59","54.4","36.9","51.6","30.05","218","5.3","13.2","0.00","0.00"
"11:14:59","54.5","36.8","51.1","30.05","225","4.7","8.4","0.00","0.00"
"11:19:58","54.8","36.8","50.7","30.05","215","4.9","9.6","0.00","0.00"
"11:24:56","54.9","35.1","47","30.05","158","5","12","0.00","0.00"
"11:29:59","55","34.3","45.4","30.05","176","5.1","13.2","0.00","0.00"
"11:34:57","55","34.7","46.3","30.05","194","6.3","12.7","0.00","0.00"
"11:39:58","55.2","34.7","45.8","30.05","188","4.1","8.4","0.00","0.00"
"11:44:56","55.5","34","44.2","30.05","165","4.7","9.6","0.00","0.00"
"11:49:59","55.7","33.6","43.2","30.05","160","4.6","12","0.00","0.00"
"11:54:57","56","34.1","43.6","30.05","163","4.3","12","0.00","0.00"
"11:59:56","56.4","33.3","41.6","30.05","190","5.4","12","0.00","0.00"
"12:04:58","56.5","33","40.9","30.04","183","5.9","12","0.00","0.00"
"12:09:56","56.3","33.4","41.8","30.04","182","4.4","12","0.00","0.00"
"12:14:57","56.5","34.3","43.1","30.04","177","4.6","12","0.00","0.00"
"12:19:56","56.9","33.5","41.1","30.03","153","4.5","12","0.00","0.00"
"12:24:59","57","34.5","42.6","30.03","170","4.8","11.5","0.00","0.00"
"12:29:58","57.2","33.3","40.4","30.03","177","6.4","13.2","0.00","0.00"
"12:34:57","57.2","32.5","39.2","30.03","174","5.6","12","0.00","0.00"
"12:39:57","57.3","31.9","38.1","30.03","179","6.7","15","0.00","0.00"
"12:44:56","57.3","32.5","39","30.03","173","4.5","10.8","0.00","0.00"
"12:49:59","57.6","34.3","41.5","30.02","193","3.6","13.2","0.00","0.00"
"12:54:58","58","33.8","39.9","30.02","166","5.4","12.7","0.00","0.00"
"12:59:57","57.9","33.6","39.8","30.02","164","3.7","8.4","0.00","0.00"
"13:04:59","58","32.7","38.3","30.01","163","5.3","9.6","0.00","0.00"
"13:09:56","58.1","33.5","39.4","30.01","176","5.2","8.4","0.00","0.00"
"13:14:58","58.3","33.9","39.7","30.01","169","5.1","10.8","0.00","0.00"
"13:19:56","58.7","34.2","39.7","30.00","183","5","10.8","0.00","0.00"
"13:24:56","59","34.8","40.1","30.00","198","6.6","16.1","0.00","0.00"
"13:29:58","59","33.2","37.6","30.00","190","5.4","12","0.00","0.00"
"13:34:57","59","32.7","37","29.99","187","6.4","16.1","0.00","0.00"
"13:39:58","59","32.7","36.9","29.99","178","7","17.3","0.00","0.00"
"13:44:59","59","33","37.4","29.99","183","6.6","15","0.00","0.00"
"13:49:58","59.1","33.3","37.8","29.98","197","5.8","13.2","0.00","0.00"
"13:54:57","59.6","34","38.2","29.98","206","5","8.4","0.00","0.00"
"13:59:56","59.9","32.4","35.5","29.98","211","7.3","14.4","0.00","0.00"
"14:04:58","59.9","32.8","36","29.97","198","6.3","15","0.00","0.00"
"14:09:56","60.1","31.6","34","29.97","187","7","15","0.00","0.00"
"14:14:57","60.2","32.9","35.6","29.97","175","4.5","10.8","0.00","0.00"
"14:19:56","60.9","34.2","36.7","29.96","190","4.5","14.4","0.00","0.00"
"14:24:59","61.4","33.1","34.5","29.96","204","7.3","15","0.00","0.00"
"14:29:58","61.1","32.3","33.8","29.96","156","4.6","12.7","0.00","0.00"
"14:34:58","61.4","34.3","36.1","29.96","200","4.4","10.8","0.00","0.00"
"14:39:58","61.7","32.9","33.8","29.96","204","5.3","13.2","0.00","0.00"
"14:44:58","61.6","33.1","34.3","29.96","223","7.1","13.2","0.00","0.00"
"14:49:56","61.4","33.6","35.1","29.95","223","5.3","12","0.00","0.00"
"14:54:59","61.5","33.5","34.9","29.95","203","4.9","12","0.00","0.00"
"14:59:58","61.5","32.7","33.8","29.95","184","6.2","13.2","0.00","0.00"
"15:04:56","61.4","32.7","33.9","29.95","181","5.8","13.2","0.00","0.00"
"15:09:58","61.6","34.1","35.6","29.95","210","6.1","15","0.00","0.00"
"15:14:56","61.8","32.4","33.1","29.95","200","8.4","16.1","0.00","0.00"
"15:19:58","61.4","32.4","33.5","29.94","200","6.7","15","0.00","0.00"
"15:24:58","61.5","32.5","33.6","29.94","195","6","15","0.00","0.00"
"15:29:57","61.7","31.5","32","29.94","180","6.6","13.2","0.00","0.00"
"15:34:56","61.8","31.6","31.9","29.94","195","4.7","12","0.00","0.00"
"15:39:56","62","32","32.4","29.94","186","4.1","11.5","0.00","0.00"
"15:44:56","62.2","31.8","31.9","29.94","204","7","14.4","0.00","0.00"
"15:49:59","62","32.3","32.7","29.94","190","5.3","10.8","0.00","0.00"
"15:54:58","62.1","31.5","31.6","29.94","194","6.1","16.8","0.00","0.00"
"15:59:57","61.8","31.6","32","29.94","209","6.7","17.3","0.00","0.00"
"16:04:59","61.9","31.9","32.3","29.93","183","4.6","12.7","0.00","0.00"
"16:09:57","62.2","32.3","32.4","29.93","180","5.8","15","0.00","0.00"
"16:14:58","62.2","32.1","32.1","29.93","179","5.1","15","0.00","0.00"
"16:19:57","62","31.8","31.9","29.93","168","5.3","14.4","0.00","0.00"
"16:24:56","61.9","31.9","32.3","29.93","180","4.8","15","0.00","0.00"
"16:29:58","61.7","31.9","32.5","29.93","202","6.7","13.2","0.00","0.00"
"16:34:57","61.6","31.6","32.3","29.93","186","5.2","13.2","0.00","0.00"
"16:39:58","61.5","31.4","32","29.93","197","5.8","10.8","0.00","0.00"
"16:44:56","61.4","32","33","29.93","201","6.8","17.3","0.00","0.00"
"16:49:59","61.3","31.1","31.9","29.93","191","6.3","13.2","0.00","0.00"
"16:54:58","61.1","31.7","32.9","29.93","189","5.1","12","0.00","0.00"
"16:59:56","61","31.1","32.2","29.93","201","6.4","18.4","0.00","0.00"
"17:04:58","60.6","30","31.3","29.93","191","5.2","12.7","0.00","0.00"
"17:09:56","60.1","30.4","32.5","29.93","188","4.9","13.2","0.00","0.00"
"17:14:58","59.7","30.4","32.8","29.93","187","4.6","12","0.00","0.00"
"17:19:56","59.4","29.9","32.5","29.93","187","6.6","15","0.00","0.00"
"17:24:59","59.1","30.4","33.5","29.93","195","4.3","8.1","0.00","0.00"
"17:29:58","59","30.6","33.9","29.93","173","3.8","7.2","0.00","0.00"
"17:34:57","59.1","31.4","34.9","29.93","186","4.2","8.4","0.00","0.00"
"17:39:58","59","31.4","35","29.93","184","3","8.1","0.00","0.00"
"17:44:58","58.9","31.4","35.2","29.93","187","4.4","10.8","0.00","0.00"
"17:49:57","58.7","31.6","35.7","29.93","193","3.9","8.4","0.00","0.00"
"17:54:56","58.5","31.6","36.1","29.93","172","2.8","9.6","0.00","0.00"
"17:59:59","58.2","31.4","36.1","29.93","189","3.5","7.2","0.00","0.00"
"18:04:57","57.9","31.3","36.3","29.93","204","2.1","4.8","0.00","0.00"
"18:09:59","57.7","31.6","37.1","29.93","203","2.3","4.8","0.00","0.00"
"18:14:57","57.4","31.6","37.4","29.94","202","1.8","4.8","0.00","0.00"
"18:19:56","57","31.2","37.3","29.94","162","2.2","4.8","0.00","0.00"
"18:24:59","56.8","31.1","37.5","29.94","140","1.8","3.6","0.00","0.00"
"18:29:59","56.5","31","37.6","29.94","140","1","2.4","0.00","0.00"
"18:34:58","56.3","31","38","29.94","140","1.1","4.8","0.00","0.00"
"18:39:59","56","30.9","38.3","29.94","140","1.2","3.6","0.00","0.00"
"18:44:59","55.6","31.6","39.9","29.95","140","0.3","2.3","0.00","0.00"
"18:49:58","55.1","32","41.4","29.95","140","0.9","2.4","0.00","0.00"
"18:54:57","54.3","32.7","43.7","29.95","140","0.6","2.4","0.00","0.00"
"18:59:56","53.4","32.9","45.6","29.95","140","0","1.2","0.00","0.00"
"19:04:59","52.6","32.8","46.7","29.95","140","0.7","2.4","0.00","0.00"
"19:09:57","51.9","34.2","50.9","29.95","140","1.2","2.4","0.00","0.00"
"19:14:59","51.1","33.5","50.8","29.96","140","0.6","2.4","0.00","0.00"
"19:19:58","50.6","33.8","52.3","29.96","140","0.3","1.2","0.00","0.00"
"19:24:58","50.1","33.9","53.8","29.96","140","0.2","1.2","0.00","0.00"
"19:29:58","49.3","33.8","54.8","29.96","140","0.2","1.2","0.00","0.00"
"19:34:57","48.7","34","56.6","29.96","140","0","0","0.00","0.00"
"19:39:59","48.1","34.6","59.4","29.96","140","0","0","0.00","0.00"
"19:44:59","47.5","34.6","60.6","29.97","140","0","0","0.00","0.00"
"19:49:59","47","34.7","62.2","29.97","140","0","0","0.00","0.00"
"19:54:58","46.5","34.8","63.6","29.97","140","0","0","0.00","0.00"
"19:59:58","46","34.9","65","29.98","140","0","0","0.00","0.00"
"20:04:56","45.5","34.6","65.3","29.98","140","0","0","0.00","0.00"
"20:09:58","45.2","34.4","66","29.98","140","0","0","0.00","0.00"
"20:14:56","44.8","34.9","68.1","29.98","140","0","0","0.00","0.00"
"20:19:56","44.4","34.9","69.3","29.98","140","0","0","0.00","0.00"
"20:24:59","44","34.7","69.7","29.98","140","0","0","0.00","0.00"
"20:29:59","43.6","34","68.6","29.98","140","0","0","0.00","0.00"
"20:34:59","43.4","33.9","69","29.98","140","0","0","0.00","0.00"
"20:39:57","43.2","33.4","68.3","29.98","140","0","0","0.00","0.00"
"20:44:57","43.2","33.3","68.1","29.98","140","0","0","0.00","0.00"
"20:49:57","43.2","33.4","68.4","29.98","140","0","0","0.00","0.00"
"20:54:57","43.1","33.4","68.4","29.98","140","0","0","0.00","0.00"
"20:59:56","43","33.6","69.4","29.98","140","0","0","0.00","0.00"
"21:04:59","42.8","33.7","69.9","29.98","140","0","0","0.00","0.00"
"21:09:57","42.7","34","71.3","29.98","140","0.1","1.2","0.00","0.00"
"21:14:59","42.6","33.9","71","29.99","140","0","1.2","0.00","0.00"
"21:19:58","42.6","33.7","70.5","29.99","140","0","1.2","0.00","0.00"
"21:24:58","42.7","33.8","70.6","29.99","140","0","1.2","0.00","0.00"
"21:29:57","42.9","34.2","71.2","29.99","140","0.1","1.2","0.00","0.00"
"21:34:57","42.8","34.9","73.5","29.99","140","0","0","0.00","0.00"
"21:39:59","42.4","34.7","74","29.99","140","0.1","1.2","0.00","0.00"
"21:44:59","41.9","34.4","74.7","29.99","140","0.2","2.4","0.00","0.00"
"21:49:58","41.5","34.3","75.5","29.99","140","2.1","3.6","0.00","0.00"
"21:54:58","41.2","34.3","76.5","29.99","96","3","3.6","0.00","0.00"
"21:59:57","41","34.4","77.3","30.01","24","2.6","3.6","0.00","0.00"
"22:04:59","40.8","34.5","78","30.01","24","1.9","3.6","0.00","0.00"
"22:09:58","40.6","34.3","78","30.01","24","1.8","3.6","0.00","0.00"
"22:14:59","40.6","34.3","78","30.02","24","0.6","3.6","0.00","0.00"
"22:19:59","40.4","34.2","78.3","30.02","24","0.6","3.5","0.00","0.00"
"22:24:58","40.2","34.2","79","30.02","24","0.2","2.3","0.00","0.00"
"22:29:58","40","34","79","30.02","24","0","0","0.00","0.00"
"22:34:58","39.9","34","79.3","30.02","24","0","0","0.00","0.00"
"22:39:59","39.7","33.9","79.6","30.02","24","0","0","0.00","0.00"
"22:44:59","39.6","33.9","80","30.03","24","0","0","0.00","0.00"
"22:49:59","39.4","33.8","80.2","30.03","24","0.6","2.4","0.00","0.00"
"22:54:58","39.4","34.1","81","30.03","24","0.4","2.4","0.00","0.00"
"22:59:59","39.3","34","81","30.04","24","0.5","2.4","0.00","0.00"
"23:04:57","39.4","34.1","81","30.04","24","0","1.2","0.00","0.00"
"23:09:59","39.4","34.5","82.3","30.04","24","0.4","2.4","0.00","0.00"
"23:14:57","39.6","34.6","82.1","30.04","24","0.4","2.4","0.00","0.00"
"23:19:56","39.7","34.9","82.6","30.04","24","0.7","2.4","0.00","0.00"
"23:24:59","39.9","35.2","83","30.04","24","0.5","2.4","0.00","0.00"
"23:29:59","40.1","35.4","83","30.04","24","0.3","2.4","0.00","0.00"
"23:34:58","40.2","35.4","83","30.04","24","0","0","0.00","0.00"
"23:39:59","40.3","35.7","83.8","30.04","24","0.1","2.4","0.00","0.00"
"23:44:59","40.3","35.5","83","30.04","24","0.2","2.4","0.00","0.00"
